Regional Weather Roundup
Issued by NWS

Home | Current Version | Previous Version | Graphics & Text | Print | Product List | Glossary On
Versions: 1 2 3 4 5 6 7 8 9 10 11 12 13 14 15 16 17 18 19 20 21 22 23 24 25 26 27
000
ASUS45 KSLC 241810
RWRUT

UTAH REGIONAL WEATHER ROUNDUP
NATIONAL WEATHER SERVICE SALT LAKE CITY UT
1200 PM MDT MON JUL 24 2017

UTZ001>011-023>025-241900-

NORTHERN UTAH

CITY           SKY/WX    TMP DP  RH WIND       PRES   REMARKS
BRIGHAM CITY   PTSUNNY   86  44  22 CALM      30.04S
HILL AFB       PTSUNNY   82  47  29 E8        30.07S
LOGAN          MOSUNNY   86  49  27 SW5       30.04F
OGDEN          CLOUDY    85  50  29 S5        30.04S
SALT LAKE CITY PTSUNNY   90  46  21 S7        30.01F
TOOELE VALLEY  MOSUNNY   90  46  22 N7        30.02F
WENDOVER       SUNNY     90  44  20 SE12      30.01S
HEBER CITY     MOSUNNY   81  43  26 CALM      30.13F
WEST JORDAN    MOSUNNY   88  58  35 SE10      30.05S

$$

UTZ011>015-024>027-241900-

CENTRAL/NORTHEAST UTAH

CITY           SKY/WX    TMP DP  RH WIND       PRES   REMARKS
PROVO AIRPORT  MOSUNNY   82  54  37 SW5       30.06S
MOAB/CANYONLAN SUNNY     90  52  27 S7        30.05F
DELTA          MOSUNNY   86  43  22 S12       30.08S
PRICE          MOSUNNY   83  49  30 VRB3      30.17F
RICHFIELD      MOSUNNY   81  50  34 E6        30.14F
ROOSEVELT      CLOUDY    86  43  22 CALM      30.12F
VERNAL         SUNNY     87  45  23 SE5       30.11F

$$

UTZ013>016-019>022-027-241900-

SOUTHERN UTAH

CITY           SKY/WX    TMP DP  RH WIND       PRES   REMARKS
BRYCE CANYON   MOSUNNY   72  53  51 SE14G21   30.32F
CEDAR CITY     MOSUNNY   86  46  24 W9        30.13F
MILFORD        MOSUNNY   84  51  31 S10       30.08F
ST GEORGE      PTCLDY    93  55  27 VRB6      29.96F HX  91
HANKSVILLE     SUNNY     90  52  27 SE6       30.07F
KANAB          SUNNY     82  55  39 E3        30.16F
BLANDING       CLOUDY    76  54  46 CALM      30.29S

$$

REGIONAL REPORTS     COLORADO/ARIZONA

CITY           SKY/WX    TMP DP  RH WIND       PRES   REMARKS
CRAIG, CO      SUNNY     87  39  18 N9        30.19F
GRAND JUNCTION SUNNY     90  49  24 VRB5      30.09F
RIFLE, CO      SUNNY     85  46  25 NW6       30.15F
MONTROSE, CO   SUNNY     83  47  28 VRB3      30.18F
CORTEZ, CO     SUNNY     82  54  37 W8        30.21F
COLORADO CITY    N/A     86  54  32 SE3       30.14F
PAGE, AZ       CLOUDY    82  60  47 VRB5      30.08F
GRAND CANYON   CLOUDY    71  56  58 SE7       30.27F
KINGMAN, AZ    CLOUDY    83  61  47 VRB6      30.05S
FLAGSTAFF, AZ  CLOUDY    62  59  90 N3        30.30F

$$

REGIONAL REPORTS    NEVADA/IDAHO/WYOMING

CITY           SKY/WX    TMP DP  RH WIND       PRES   REMARKS
LAS VEGAS, NV  PTSUNNY   95  62  33 VRB6      29.90F HX  96
ELY, NY          N/A    N/A N/A N/A MISG      30.17F
ELKO, NV       MOSUNNY   89  43  20 SW12      30.07F
POCATELLO, ID  SUNNY     88  39  17 E3        30.02F
BURLEY, ID     MOSUNNY   88  48  25 VRB3      29.99S
FORT BRIDGER,  MOCLDY    79  40  24 W7        30.28S
EVANSTON, WY   CLOUDY    74  43  32 SW9       30.25F
ROCK SPRINGS,  CLOUDY    79  35  20 S3        30.22F
KEMMERER, WY     N/A     79  34  19 W3        30.26S

$$




USA.gov is the U.S. government's official web portal to all federal, state and local government web resources and services.